KC2PJH Weather Reports


time (UTC)temp
C
wind
direction
speed
KPH
gust
KPH
rain 1hr
cm
rain 24hr
cm
rain mn
cm
humidity
%
barometer
mb
20260506112336 18 359 6.4 17.7 0.00 0.00 0.00 1 1005.9
20260506111327 18 359 3.2 9.7 0.00 0.00 0.00 1 1005.8
20260506110321 18 359 1.6 14.5 0.00 0.00 0.00 1 1005.9
20260506105319 18 359 4.8 16.1 0.00 0.00 0.00 1 1005.7
20260506104317 18 359 4.8 17.7 0.00 0.00 0.00 1 1005.9
20260506103316 18 359 3.2 9.7 0.00 0.00 0.00 1 1005.7
20260506102315 18 359 1.6 12.9 0.00 0.00 0.00 1 1005.6
20260506101320 18 359 1.6 8.0 0.00 0.00 0.00 1 1005.8
20260506100317 18 359 0.0 8.0 0.00 0.00 0.00 1 1005.6
20260506095315 18 359 4.8 12.9 0.00 0.00 0.00 1 1005.4
20260506094311 18 359 3.2 14.5 0.00 0.00 0.00 1 1005.6
20260506093350 18 359 8.0 16.1 0.00 0.00 0.00 1 1005.7
20260506092319 18 359 4.8 8.0 0.00 0.00 0.00 1 1005.6
20260506091324 18 359 4.8 14.5 0.00 0.00 0.00 1 1005.6
20260506090321 18 359 1.6 9.7 0.00 0.00 0.00 1 1005.5
20260506085320 18 359 1.6 12.9 0.00 0.00 0.00 1 1005.7
20260506084330 18 359 1.6 14.5 0.00 0.00 0.00 4 1005.7
20260506083326 18 359 1.6 16.1 0.00 0.00 0.00 14 1005.7
20260506082323 18 359 3.2 9.7 0.00 0.00 0.00 20 1005.8
20260506081318 19 359 1.6 8.0 0.00 0.00 0.00 27 1005.8
20260506080334 19 359 0.0 8.0 0.00 0.00 0.00 32 1005.9
20260506073314 19 359 0.0 4.8 0.00 0.00 0.00 43 1005.9
20260506072333 19 359 0.0 6.4 0.00 0.00 0.00 46 1005.9
20260506071352 20 359 1.6 6.4 0.00 0.00 0.00 49 1005.9
20260506070325 20 359 0.0 6.4 0.00 0.00 0.00 51 1006.1
20260506062326 20 359 4.8 12.9 0.00 0.00 0.00 53 1006.3
20260506061326 20 359 4.8 14.5 0.00 0.00 0.00 53 1006.2
20260506060318 20 359 1.6 12.9 0.00 0.00 0.00 53 1006.3
20260506051316 21 359 8.0 25.7 0.00 0.00 0.00 54 1006.5
20260506050336 21 359 4.8 12.9 0.00 0.00 0.00 55 1006.7
20260506044321 21 359 3.2 12.9 0.00 0.00 0.00 54 1006.8
20260506043319 21 359 1.6 16.1 0.00 0.00 0.00 53 1006.7
20260506042327 21 359 3.2 9.7 0.00 0.00 0.00 53 1006.7
20260506041319 21 359 3.2 16.1 0.00 0.00 0.00 52 1006.7
20260506040330 21 62 1.6 11.3 0.00 0.00 0.00 51 1006.6
20260506035320 22 187 4.8 11.3 0.00 0.00 0.00 50 1006.5
20260506034327 22 201 3.2 16.1 0.00 0.00 0.00 49 1006.5
20260506033322 22 359 0.0 6.4 0.00 0.00 0.00 48 1006.4
20260506032319 22 359 1.6 17.7 0.00 0.00 0.00 47 1006.4
20260506031315 22 186 4.8 11.3 0.00 0.00 0.00 47 1006.4
20260506030311 22 160 3.2 12.9 0.00 0.00 0.00 47 1006.3
20260506025348 22 229 4.8 12.9 0.00 0.00 0.00 46 1006.3
20260506024322 23 155 3.2 12.9 0.00 0.00 0.00 46 1006.3
20260506023320 23 224 6.4 19.3 0.00 0.00 0.00 45 1006.2
20260506022338 23 172 4.8 17.7 0.00 0.00 0.00 45 1006.1
20260506021328 23 193 4.8 17.7 0.00 0.00 0.00 44 1006.1
20260506020325 23 277 3.2 14.5 0.00 0.00 0.00 44 1006.0
20260506015323 23 197 3.2 11.3 0.00 0.00 0.00 42 1006.0
20260506014320 23 170 1.6 8.0 0.00 0.00 0.00 41 1006.1
20260506013340 23 228 1.6 16.1 0.00 0.00 0.00 40 1006.0
20260506012328 23 182 4.8 14.5 0.00 0.00 0.00 39 1005.8
20260506011323 23 249 4.8 14.5 0.00 0.00 0.00 39 1005.7
20260506010321 23 170 4.8 12.9 0.00 0.00 0.00 39 1005.5
20260506005320 23 239 6.4 12.9 0.00 0.00 0.00 39 1005.5
20260506004319 23 158 4.8 11.3 0.00 0.00 0.00 38 1005.4
20260506003329 23 60 1.6 11.3 0.00 0.00 0.00 39 1005.4
20260506002340 24 191 4.8 9.7 0.00 0.00 0.00 38 1005.3
20260506001317 24 145 6.4 16.1 0.00 0.00 0.00 38 1005.2
20260506000323 24 259 3.2 12.9 0.00 0.00 0.00 37 1005.2
20260505235321 24 185 6.4 25.7 0.00 0.00 0.00 37 1005.1
20260505234319 25 359 1.6 19.3 0.00 0.00 0.00 37 1005.0
20260505233315 25 156 4.8 16.1 0.00 0.00 0.00 36 1004.9
20260505232324 25 172 4.8 22.5 0.00 0.00 0.00 36 1004.6
20260505231319 25 95 4.8 29.0 0.00 0.00 0.00 36 1004.5
20260505230316 25 144 9.7 22.5 0.00 0.00 0.00 35 1004.5
20260505225314 26 213 8.0 19.3 0.00 0.00 0.00 35 1004.5
20260505224324 26 153 6.4 20.9 0.00 0.00 0.00 35 1004.2
20260505223340 26 201 12.9 24.1 0.00 0.00 0.00 34 1004.0
20260505222345 26 214 8.0 20.9 0.00 0.00 0.00 33 1004.2
20260505221320 26 359 8.0 33.8 0.00 0.00 0.00 33 1004.1
20260505220328 27 359 14.5 27.4 0.00 0.00 0.00 32 1003.9
20260505215326 27 359 8.0 33.8 0.00 0.00 0.00 33 1003.9
20260505214323 27 359 6.4 32.2 0.00 0.00 0.00 33 1003.7
20260505213322 27 359 8.0 22.5 0.00 0.00 0.00 32 1003.7
20260505212320 27 359 11.3 30.6 0.00 0.00 0.00 32 1003.8
20260505211327 27 359 9.7 29.0 0.00 0.00 0.00 33 1003.7
20260505210343 27 359 9.7 22.5 0.00 0.00 0.00 32 1003.5
20260505205321 27 359 6.4 20.9 0.00 0.00 0.00 33 1003.3
20260505204319 27 359 8.0 25.7 0.00 0.00 0.00 32 1003.4
20260505203314 28 359 11.3 25.7 0.00 0.00 0.00 32 1003.3
20260505202330 27 359 6.4 27.4 0.00 0.00 0.00 32 1003.5
20260505201325 27 359 4.8 32.2 0.00 0.00 0.00 34 1003.7
20260505200344 27 359 12.9 27.4 0.00 0.00 0.00 33 1004.0
20260505195320 28 359 8.0 24.1 0.00 0.00 0.00 33 1003.9
20260505194319 28 359 6.4 24.1 0.00 0.00 0.00 34 1004.0
20260505193344 28 359 6.4 29.0 0.00 0.00 0.00 33 1004.1
20260505192340 28 359 9.7 20.9 0.00 0.00 0.00 33 1004.2
20260505191316 27 359 11.3 27.4 0.00 0.00 0.00 34 1004.4
20260505190325 27 359 12.9 32.2 0.00 0.00 0.00 34 1004.6
20260505185316 28 359 14.5 27.4 0.00 0.00 0.00 35 1004.6
20260505184335 27 359 4.8 25.7 0.00 0.00 0.00 38 1004.6
20260505183324 27 359 6.4 22.5 0.00 0.00 0.00 37 1004.8
20260505182321 27 359 6.4 20.9 0.00 0.00 0.00 38 1005.1
20260505181319 27 359 9.7 29.0 0.00 0.00 0.00 38 1005.3
20260505180334 27 359 11.3 25.7 0.00 0.00 0.00 37 1005.3
20260505175320 26 359 6.4 37.0 0.00 0.00 0.00 39 1005.3
20260505174317 26 359 12.9 33.8 0.00 0.00 0.00 40 1005.5
20260505173323 26 359 11.3 30.6 0.00 0.00 0.00 40 1005.6
20260505172341 26 359 9.7 24.1 0.00 0.00 0.00 41 1005.7
20260505171313 26 359 6.4 24.1 0.00 0.00 0.00 41 1005.6
20260505170330 26 359 8.0 24.1 0.00 0.00 0.00 41 1005.7
20260505165317 26 359 8.0 20.9 0.00 0.00 0.00 43 1005.9
20260505164327 25 359 6.4 22.5 0.00 0.00 0.00 44 1006.1
20260505163324 25 359 4.8 24.1 0.00 0.00 0.00 44 1006.2
20260505162341 25 359 4.8 17.7 0.00 0.00 0.00 44 1006.3
20260505161328 25 359 4.8 25.7 0.00 0.00 0.00 44 1006.5
20260505160324 25 359 8.0 17.7 0.00 0.00 0.00 44 1006.8
20260505153319 24 359 4.8 17.7 0.00 0.00 0.00 47 1007.1
20260505152317 23 359 9.7 20.9 0.00 0.00 0.00 47 1007.0
20260505151312 23 359 4.8 20.9 0.00 0.00 0.00 47 1007.0
20260505150330 23 359 4.8 14.5 0.00 0.00 0.00 48 1007.0
20260505140336 21 359 11.3 24.1 0.00 0.00 0.00 50 1007.5
20260505124328 17 359 1.6 6.4 0.00 0.00 0.00 1 1007.4
20260505123323 16 359 3.2 6.4 0.00 0.00 0.00 1 1007.2
20260505122319 16 207 3.2 6.4 0.00 0.00 0.00 1 1007.3
20260505121328 15 192 3.2 6.4 0.00 0.00 0.00 1 1007.4
20260505120344 14 249 0.0 0.0 0.00 0.00 0.00 1 1007.4
20260505115322 14 226 0.0 0.0 0.00 0.00 0.00 1 1007.5
20260505114322 14 127 0.0 0.0 0.00 0.00 0.00 1 1007.5
20260505113339 14 127 0.0 0.0 0.00 0.00 0.00 1 1007.5